Weather History for YWLM - November, 2012

Change the Weather History Date:

Saturday, November 3, 2012

  Actual Average Record
Temperature  
Mean Temperature 58 °F -  
Max Temperature 68 °F - - ()
Min Temperature 48 °F - - ()
Degree Days  
Heating Degree Days 7    
Growing Degree Days 8 (Base 50)    
Moisture  
Dew Point 50 °F    
Average Humidity 66    
Maximum Humidity 94    
Minimum Humidity 30    
Precipitation  
Precipitation 0.00 in - - ()
Sea Level Pressure  
Sea Level Pressure 30.10 in    
Wind  
Wind Speed 6 mph ()    
Max Wind Speed 15 mph    
Max Gust Speed -    
Visibility 6.2 miles    
Events      
T = Trace of Precipitation, MM = Missing Value Source: Averaged Metar Reports

Daily Weather History Graph

Daily Weather History Graph

Search for Another Location

Airport or City:

Trip Planner

Search our weather history database for the weather conditions in past years. The results will help you decide how hot, cold, wet, or windy it might be!

Date:

Astronomy

Nov. 03, 2012 Rise Set
Actual Time 5:52 AM AEDT 7:20 PM AEDT
Civil Twilight 5:25 AM AEDT 7:47 PM AEDT
Nautical Twilight 4:54 AM AEDT 8:18 PM AEDT
Astronomical Twilight 4:21 AM AEDT 8:51 PM AEDT
Moon 11:04 PM AEDT 8:44 AM AEDT
Length of Visible Light 14h 21m
Length of Day
13h 28m
Waning Gibbous, 85% of the Moon is Illuminated
Nov 3
Waning Gibbous
Nov 7
Last Quarter
Nov 14
New
Nov 21
First Quarter
Nov 29
Full

Hourly Weather History & Observations

Time (AEDT) Temp. Dew Point Humidity Pressure Visibility Wind Dir Wind Speed Gust Speed Precip Events Conditions
12:00 AM 52 °F 49 °F 85% 30.09 in - Calm Calm - -  
12:00 AM 51.8 °F 48.2 °F 88% 30.06 in 6.2 mi Calm Calm - N/A   Scattered Clouds
12:30 AM 51.8 °F 48.2 °F 88% 30.06 in 6.2 mi Calm Calm - N/A   Unknown
1:00 AM 51.8 °F 48.2 °F 88% 30.06 in 6.2 mi Calm Calm - N/A   Scattered Clouds
1:30 AM 50.0 °F 48.2 °F 94% 30.06 in 6.2 mi Calm Calm - N/A   Scattered Clouds
2:00 AM 50 °F 47 °F 88% 30.07 in - Calm Calm - -  
2:00 AM 50.0 °F 48.2 °F 94% 30.06 in 6.2 mi Calm Calm - N/A   Mostly Cloudy
2:30 AM 51.8 °F 50.0 °F 94% 30.06 in 6.2 mi NW 5.8 mph - N/A   Overcast
3:00 AM 53 °F 51 °F 89% 30.07 in - NW 5.8 mph - -   Overcast
3:00 AM 53.6 °F 50.0 °F 88% 30.06 in 6.2 mi NW 5.8 mph - N/A   Overcast
3:30 AM 53.6 °F 50.0 °F 88% 30.06 in 6.2 mi WNW 5.8 mph - N/A   Overcast
4:00 AM 53.6 °F 51.8 °F 94% 30.06 in 6.2 mi NW 5.8 mph - N/A   Overcast
4:30 AM 53.6 °F 50.0 °F 88% 30.06 in 6.2 mi West 5.8 mph - N/A   Overcast
5:00 AM 54 °F 50 °F 82% 30.08 in - NW 8.1 mph - -  
5:00 AM 53.6 °F 50.0 °F 88% 30.06 in 6.2 mi NW 8.1 mph - N/A   Overcast
5:30 AM 55.4 °F 50.0 °F 82% 30.09 in 6.2 mi NW 5.8 mph - N/A   Overcast
6:00 AM 55 °F 51 °F 83% 30.09 in - NW 6.9 mph - -   Overcast
6:00 AM 55.4 °F 51.8 °F 88% 30.06 in 6.2 mi NW 6.9 mph - N/A   Overcast
6:30 AM 55.4 °F 51.8 °F 88% 30.09 in 6.2 mi NW 6.9 mph - N/A   Overcast
7:00 AM 59.0 °F 53.6 °F 82% 30.09 in 6.2 mi Calm Calm - N/A   Overcast
7:30 AM 57.2 °F 51.8 °F 82% 30.12 in 6.2 mi SW 5.8 mph - N/A   Overcast
8:00 AM 59 °F 51 °F 67% 30.13 in - West 5.8 mph - -  
8:00 AM 59.0 °F 51.8 °F 77% 30.12 in 6.2 mi West 5.8 mph - N/A   Overcast
8:30 AM 62.6 °F 51.8 °F 68% 30.12 in 6.2 mi SW 4.6 mph - N/A   Overcast
9:00 AM 64 °F 50 °F 49% 30.14 in - SSE 5.8 mph - -  
9:00 AM 64.4 °F 50.0 °F 59% 30.12 in 6.2 mi SSE 5.8 mph - N/A   Overcast
9:30 AM 66.2 °F 48.2 °F 52% 30.12 in 6.2 mi South 9.2 mph - N/A   Scattered Clouds
10:00 AM 68.0 °F 44.6 °F 43% 30.12 in 6.2 mi ESE 11.5 mph - N/A   Unknown
10:30 AM 68.0 °F 44.6 °F 43% 30.12 in 6.2 mi SE 12.7 mph - N/A   Unknown
11:00 AM 68 °F 44 °F 30% 30.14 in - SE 11.5 mph - -  
11:00 AM 68.0 °F 42.8 °F 40% 30.12 in 6.2 mi SE 11.5 mph - N/A   Mostly Cloudy
11:30 AM 68.0 °F 42.8 °F 40% 30.12 in 6.2 mi SE 12.7 mph - N/A   Overcast
12:00 PM 67 °F 46 °F 36% 30.14 in - SE 13.8 mph - -   Overcast
12:00 PM 66.2 °F 46.4 °F 49% 30.12 in 6.2 mi SE 13.8 mph - N/A   Overcast
12:30 PM 66.2 °F 44.6 °F 46% 30.12 in 6.2 mi SE 13.8 mph - N/A   Overcast
1:00 PM 68.0 °F 44.6 °F 43% 30.09 in 6.2 mi SE 15.0 mph - N/A   Mostly Cloudy
1:30 PM 66.2 °F 44.6 °F 46% 30.12 in 6.2 mi ESE 12.7 mph - N/A   Unknown
2:00 PM 67 °F 48 °F 40% 30.12 in - SE 15.0 mph - -  
2:00 PM 66.2 °F 48.2 °F 52% 30.09 in 6.2 mi SE 15.0 mph - N/A   Unknown
2:30 PM 68.0 °F 50.0 °F 52% 30.09 in 6.2 mi SE 12.7 mph - N/A   Unknown
3:00 PM 66 °F 50 °F 47% 30.12 in - SE 13.8 mph - -  
3:00 PM 66.2 °F 50.0 °F 56% 30.09 in 6.2 mi SE 13.8 mph - N/A   Mostly Cloudy
3:30 PM 66.2 °F 50.0 °F 56% 30.09 in 6.2 mi ESE 15.0 mph - N/A   Scattered Clouds
4:00 PM 66.2 °F 50.0 °F 56% 30.09 in 6.2 mi ESE 15.0 mph - N/A   Scattered Clouds
4:30 PM 64.4 °F 50.0 °F 59% 30.09 in 6.2 mi ESE 13.8 mph - N/A   Unknown
5:00 PM 65 °F 48 °F 44% 30.11 in - ESE 11.5 mph - -  
5:00 PM 64.4 °F 48.2 °F 56% 30.09 in 6.2 mi ESE 11.5 mph - N/A   Scattered Clouds
5:30 PM 64.4 °F 48.2 °F 56% 30.09 in 6.2 mi ESE 12.7 mph - N/A   Mostly Cloudy
6:00 PM 65 °F 49 °F 46% 30.12 in - ESE 13.8 mph - -  
6:00 PM 64.4 °F 50.0 °F 59% 30.09 in 6.2 mi ESE 13.8 mph - N/A   Mostly Cloudy
6:30 PM 64.4 °F 51.8 °F 64% 30.12 in 6.2 mi ESE 11.5 mph - N/A   Mostly Cloudy
7:00 PM 62.6 °F 51.8 °F 68% 30.09 in 6.2 mi East 9.2 mph - N/A   Overcast
7:30 PM 62.6 °F 51.8 °F 68% 30.12 in 6.2 mi ESE 8.1 mph - N/A   Overcast
8:00 PM 63 °F 53 °F 60% 30.13 in - East 6.9 mph - -  
8:00 PM 62.6 °F 53.6 °F 72% 30.12 in 6.2 mi East 6.9 mph - N/A   Overcast
8:30 PM 62.6 °F 53.6 °F 72% 30.12 in 6.2 mi East 5.8 mph - N/A   Mostly Cloudy
9:00 PM 63 °F 53 °F 60% 30.15 in - East 6.9 mph - -  
9:00 PM 62.6 °F 53.6 °F 72% 30.12 in 6.2 mi East 6.9 mph - N/A   Mostly Cloudy
9:30 PM 62.6 °F 51.8 °F 68% 30.12 in 6.2 mi East 5.8 mph - N/A   Overcast
10:00 PM 62.6 °F 53.6 °F 72% 30.15 in 6.2 mi ENE 4.6 mph - N/A   Overcast
10:30 PM 62.6 °F 53.6 °F 72% 30.15 in 6.2 mi ENE 4.6 mph - N/A   Overcast
11:00 PM 63 °F 53 °F 60% 30.15 in - ENE 2.3 mph - -  
11:00 PM 62.6 °F 53.6 °F 72% 30.15 in 6.2 mi ENE 2.3 mph - N/A   Mostly Cloudy
11:30 PM 62.6 °F 51.8 °F 68% 30.12 in 6.2 mi East 6.9 mph - N/A   Mostly Cloudy